Tracking 25707 objects as of 30-Jun-2022
HD Live streaming from Space Station
objects crossing your sky now

ECHOSTAR 7

Track ECHOSTAR 7 now!
ECHOSTAR 7 is classified as:


NORAD ID: 27378
Int'l Code: 2002-006A
Perigee: 35,893.7 km
Apogee: 35,941.0 km
Inclination: 0.3 °
Period: 1,442.4 minutes
Semi major axis: 42288 km
RCS: 17.7827 m2 (large)
Launch date: February 21, 2002
Source: United States (US)
Launch site: AIR FORCE EASTERN TEST RANGE (AFETR)

CONUS, Hawaii, Alaska and Puerto Rico; 32 Ku-band transponders
aabbcc
Your satellite tracking list
Your tracking list is empty




NASA's NSSDC Master Catalog

Two Line Element Set (TLE):
1 27378U 02006A   22180.50158008  .00000059  00000-0  00000-0 0  9999
2 27378   0.2731  93.2984 0005593 348.0667  85.5706  0.99832372 36073
Source of the keplerian elements: AFSPC